Location: Castrojimeno
(41.3966°N, 3.8473°W)
Time: 19:55:46
(UTC+00:00)

Okean-O - Pass Details

Date: 15 May 2026
Orbit: 627 x 629 km, 97.9° (Epoch: 6 June)

Event Time Altitude Azimuth Distance (km) Brightness Sun altitude
Exits shadow 20:14:53 11° 119° (ESE) 1,958 4.4 -8.5°
Maximum altitude 20:18:12 24° 67° (ENE) 1,323 4.0 -9.0°
Drops below altitude 10° 20:21:41 10° 15° (NNE) 2,013 5.5 -9.5°
Sets 20:24:13 0° 1° (N) 2,925 6.6 -9.9°
